Victoria, British Columbia

12:51 AM PDT on June 24, 2017 (GMT -0700)
Victoria International

Weather History for CYYJ - December, 2011

Change the Weather History Date:

Friday, December 30, 2011

  Actual Average Record
Temperature  
Mean Temperature 43 °F -  
Max Temperature 49 °F 44 °F 51 °F (1997)
Min Temperature 35 °F 33 °F 23 °F (2010)
Degree Days  
Heating Degree Days 22    
Moisture  
Dew Point 34 °F    
Average Humidity 68    
Maximum Humidity 93    
Minimum Humidity 47    
Precipitation  
Precipitation 0.12 in 0.19 in - ()
Sea Level Pressure  
Sea Level Pressure 29.75 in    
Wind  
Wind Speed 12 mph ()    
Max Wind Speed 32 mph    
Max Gust Speed 39 mph    
Visibility 16.7 miles    
Events Rain    
Averages and records for this station are not official NWS values.
T = Trace of Precipitation, MM = Missing Value Source: Averaged Metar Reports

Daily Weather History Graph

Daily Weather History Graph

Search for Another Location

Airport or City:

Trip Planner

Search our weather history database for the weather conditions in past years. The results will help you decide how hot, cold, wet, or windy it might be!

Date:

Astronomy

Dec. 30, 2011 Rise Set
Actual Time 8:06 AM PST 4:26 PM PST
Civil Twilight 7:29 AM PST 5:03 PM PST
Nautical Twilight 6:49 AM PST 5:43 PM PST
Astronomical Twilight 6:10 AM PST 6:21 PM PST
Moon 10:55 AM PST (12/30) 11:43 PM PST (12/30)
Length of Visible Light 9h 33m
Length of Day
8h 20m
Waxing Crescent, 36% of the Moon is Illuminated
Dec 30
Waxing Crescent
Dec 31
First Quarter
Jan 8
Full
Jan 16
Last Quarter
Jan 22
New

Hourly Weather History & Observations

Time (PST) Temp. Windchill Dew Point Humidity Pressure Visibility Wind Dir Wind Speed Gust Speed Precip Events Conditions
12:00 AM 48.2 °F - 42.8 °F 82% 29.49 in 15.0 mi SW 9.2 mph - N/A   Overcast
1:00 AM 48.2 °F - 41.0 °F 76% 29.49 in 20.0 mi SW 10.4 mph - N/A   Overcast
1:44 AM 46.4 °F 39.8 °F - N/A% - 20.0 mi SSW 16.1 mph 21.9 mph N/A Rain Light Rain Showers
2:00 AM 46.4 °F 40.1 °F 39.2 °F 76% 29.50 in 20.0 mi SSW 15.0 mph - N/A   Mostly Cloudy
2:14 AM 46.4 °F 40.1 °F - N/A% - 20.0 mi SSW 15.0 mph - N/A Rain Light Rain Showers
3:00 AM 42.8 °F 40.1 °F 41.0 °F 93% 29.51 in 10.0 mi WSW 4.6 mph - N/A Rain Light Rain Showers
4:00 AM 46 °F - 42 °F 80% 29.54 in 10 mi SSW 11.5 mph - - Rain Light Rain Showers
4:00 AM 46.4 °F 41.9 °F 42.8 °F 87% 29.54 in 10.0 mi SW 9.2 mph 19.6 mph N/A Rain Light Rain Showers
4:53 AM 44.6 °F 42.2 °F - N/A% - 15.0 mi South 4.6 mph - N/A   Scattered Clouds
6:00 AM 44.6 °F 37.4 °F 35.6 °F 71% 29.54 in 20.0 mi WSW 16.1 mph 28.8 mph N/A   Partly Cloudy
7:00 AM 44.6 °F 37.2 °F 35.6 °F 71% 29.56 in 30.0 mi WSW 17.3 mph 28.8 mph N/A   Partly Cloudy
8:00 AM 44.6 °F 37.8 °F 35.6 °F 71% 29.59 in 30.0 mi SW 15.0 mph 28.8 mph N/A   Partly Cloudy
8:30 AM 44.6 °F 38.8 °F - N/A% - 20.0 mi SSW 11.5 mph 23.0 mph N/A Rain Light Rain Showers
9:00 AM 42.8 °F 34.0 °F 37.4 °F 81% 29.60 in 20.0 mi SSW 20.7 mph 29.9 mph N/A Rain Light Rain Showers
10:00 AM 43 °F - 38 °F 78% 29.66 in 28 mi SSW 16.1 mph - - Rain Light Rain Showers
10:00 AM 42.8 °F 35.4 °F 39.2 °F 87% 29.66 in 30.0 mi SSW 15.0 mph 28.8 mph N/A Rain Light Rain Showers
10:25 AM 44.6 °F 37.4 °F - N/A% - 30.0 mi SSW 16.1 mph 24.2 mph N/A   Partly Cloudy
11:00 AM 44.6 °F 38.8 °F 37.4 °F 76% 29.68 in 30.0 mi WSW 11.5 mph 19.6 mph N/A   Partly Cloudy
12:00 PM 44.6 °F 35.3 °F 33.8 °F 66% 29.68 in 30.0 mi WSW 26.5 mph 34.5 mph N/A   Partly Cloudy
1:00 PM 46.4 °F 39.2 °F 32.0 °F 57% 29.72 in 30.0 mi West 18.4 mph 33.4 mph N/A   Partly Cloudy
2:00 PM 46.4 °F 39.5 °F 32.0 °F 57% 29.76 in 30.0 mi WSW 17.3 mph 27.6 mph N/A   Scattered Clouds
3:00 PM 44.6 °F 34.4 °F 28.4 °F 53% 29.78 in 30.0 mi WSW 32.2 mph 39.1 mph N/A   Scattered Clouds
4:00 PM 43 °F - 29 °F 47% 29.85 in 28 mi WSW 16.1 mph - -   Partly Cloudy
4:00 PM 42.8 °F 35.1 °F 30.2 °F 61% 29.85 in 30.0 mi WSW 16.1 mph - N/A   Partly Cloudy
5:00 PM 41.0 °F 33.5 °F 26.6 °F 57% 29.90 in 30.0 mi WSW 13.8 mph - N/A   Partly Cloudy
6:00 PM 41.0 °F 33.5 °F 28.4 °F 61% 29.94 in 30.0 mi West 13.8 mph - N/A   Partly Cloudy
7:00 PM 41.0 °F 35.2 °F 26.6 °F 57% 29.98 in 30.0 mi West 9.2 mph 19.6 mph N/A   Partly Cloudy
8:00 PM 41.0 °F 32.2 °F 26.6 °F 57% 30.02 in 30.0 mi West 18.4 mph 27.6 mph N/A   Partly Cloudy
9:00 PM 41.0 °F 33.1 °F 26.6 °F 57% 30.07 in 30.0 mi SW 15.0 mph - N/A   Mostly Cloudy
10:00 PM 39 °F - 28 °F 52% 30.14 in 28 mi West 8.1 mph - -   Scattered Clouds
10:00 PM 39.2 °F 33.0 °F 28.4 °F 65% 30.14 in 30.0 mi West 9.2 mph - N/A   Mostly Cloudy
11:00 PM 37.4 °F 31.4 °F 28.4 °F 70% 30.16 in 30.0 mi WSW 8.1 mph - N/A   Partly Cloudy
11:55 PM 35.6 °F 28.0 °F - N/A% - 30.0 mi WSW 10.4 mph - N/A   Partly Cloudy